Regional Weather Roundup
Issued by NWS

Home | Current Version | Previous Version | Graphics & Text | Print | Product List | Glossary On
Versions: 1 2 3 4 5 6 7 8 9 10 11 12 13 14 15 16 17 18 19 20 21 22 23 24 25 26 27 28 29 30 31 32 33 34 35 36 37 38 39 40 41 42 43 44 45 46 47 48 49 50
903
ASUS45 KBOU 231007
RWRCO

WEATHER ROUNDUP FOR COLORADO
NATIONAL WEATHER SERVICE DENVER/BOULDER CO
300 AM MST THU FEB 23 2017

NOTE: "FAIR" INDICATES FEW OR NO CLOUDS BELOW 12000 FEET WITH NO
SIGNIFICANT WEATHER AND/OR OBSTRUCTIONS TO VISIBILITY.

COZ001>005-013-030-031-231100-
...NORTHWEST COLORADO...

CITY           SKY/WX    TMP DP  RH WIND       PRES   REMARKS
CRAIG          CLOUDY    29  26  89 CALM      29.49F
HAYDEN         FAIR      27  21  80 S9        29.48F WCI  17
MEEKER         LGT SNOW  30  28  92 W9        29.48F VSB 1   WCI  22
MOUNT WERNER   NOT AVBL
STEAMBOAT SPGS CLOUDY    31  27  84 SE5       29.48F WCI  26
WALDEN         NOT AVBL
$$

COZ006>008-011-231100-
...WEST CENTRAL VALLEYS...

CITY           SKY/WX    TMP DP  RH WIND       PRES   REMARKS
GRAND JUNCTION CLOUDY    38  33  82 W16G28    29.55S
MONTROSE       CLOUDY    39  30  70 S18G28    29.57F
EAGLE          FAIR      43  10  26 SW29G40   29.48F
RIFLE          LGT RAIN  37  34  89 W23G32    29.50R
DELTA          FAIR      46  26  44 W8G16     29.51F
NUCLA          CLOUDY    37  30  75 NW23G31   29.61R
$$

COZ017>023-064>068-231100-
...SOUTHWEST COLORADO...

CITY           SKY/WX    TMP DP  RH WIND       PRES   REMARKS
DURANGO        FAIR      38  17  42 SW16G26   29.66F
CORTEZ         FLURRIES  35  33  92 S24       29.65F WCI  23
PAGOSA SPRINGS MOCLDY    37  16  41 SW10G18   29.68F
TELLURIDE      LGT SNOW  30  24  79 S13G23    29.60S WCI  20
WOLF CREEK PAS CLOUDY    18  14  86 SW37G48   29.65F WCI  -4
$$

COZ009-010-012-014-032>034-037-058>063-231100-
...CENTRAL COLORADO...

CITY           SKY/WX    TMP DP  RH WIND       PRES   REMARKS
ASPEN          CLOUDY    38  10  31 S8        29.50F
BUENA VISTA    FAIR      34  12  39 SE14G23   29.55F WCI  25
COPPER MTN     CLOUDY    25   5  42 MISG      29.58F
BERTHOUD PASS  HAZE      12   1  62 SE22      29.57F VSB<1/4 WCI  -7
COTTONWOOD PAS FAIR      34   1  25 SW15G29   29.57F WCI  24
GUNNISON       FAIR      23  18  81 N6        29.55F WCI  16
KREMMLING      FAIR      43  12  28 SW20G25   29.49F
LEADVILLE      CLOUDY    26   8  46 S14       29.54F WCI  14
MONARCH PASS   CLOUDY    19   7  58 SW41G53   29.69F WCI  -2
SALIDA         FAIR      39  15  37 S9        29.64F
SUNLIGHT       NOT AVBL
WILKERSON PASS CLOUDY    21   9  58 SW10G22   29.62F WCI  10
$$

COZ069>075-231100-
...SAN LUIS VALLEY/SANGRE DE CRISTO MOUNTAINS...

CITY           SKY/WX    TMP DP  RH WIND       PRES   REMARKS
ALAMOSA        FAIR      37  19  48 SW18      29.64F
LA VETA PASS   MOCLDY    30  18  59 N29G53    29.63F WCI  15
SAGUACHE       MOCLDY    27  19  74 NW3       29.62F
$$

COZ035-036-038>040-231100-
...NORTHERN COLORADO FRONT RANGE...

CITY           SKY/WX    TMP DP  RH WIND       PRES   REMARKS
DENVER INTL AP FAIR      27  23  85 N12       29.64F WCI  17
DMNS CITY PARK   N/A     31  25  78 N6G14     29.65S WCI  26
AURORA         PTCLDY    26  25  98 N7        29.64F WCI  18
FRONT RANGE AP FAIR      27  25  93 NW7       29.64F WCI  19
ERIE MUNI ARPT CLOUDY    31  27  86 NE3       29.67F
BOULDER MUN AP CLOUDY    34  28  80 N7        29.65F WCI  28
CENTENNIAL     FAIR      30  24  78 N7        29.63F WCI  23
BROOMFIELD     FAIR      32  28  86 N10       29.65F WCI  24
FORT COLLINS   CLOUDY    34  27  75 NE9       29.68F WCI  27
LONGMONT       CLOUDY    37  29  74 N7        29.68F
$$

COZ041-046-047-076>085-087-088-231100-
...PIKES PEAK/PALMER DIVIDE AND SOUTHERN FOOTHILLS...

CITY           SKY/WX    TMP DP  RH WIND       PRES   REMARKS
COLO. SPRINGS  FAIR      33  17  51 N12       29.59F WCI  24
A. F. ACADEMY  FAIR      28  18  66 N13       29.59F WCI  17
SCHRIEVER AFB  FAIR      31  19  61 N18G25    29.59F WCI  19
ELLICOTT       FAIR       1  32 100 N16       29.58F WCI -19
FALCON         FAIR      28  19  66 N15G22    29.59F WCI  17
FORT CARSON    FAIR      34  17  49 NW13G26   29.57F WCI  25
LIMON          FAIR      22  17  81 N9        29.62S WCI  12
MONUMENT HILL  FAIR      19  18  93 NW6       29.63F WCI  11
TRINIDAD       FAIR      46  23  40 SW8       29.58F
$$

COZ042>045-048>051-090-091-231100-
...NORTHEAST COLORADO...

CITY           SKY/WX    TMP DP  RH WIND       PRES   REMARKS
GREELEY ARPT   CLOUDY    34  28  79 NE12      29.68F WCI  25
AKRON          CLOUDY    33  29  85 E24G35    29.63F WCI  20
BURLINGTON     FAIR      36  25  64 E14       29.61F
WRAY           NOT AVBL
STERLING       CLOUDY    34  32  93 NE15G23   29.67F WCI  24
HOLYOKE        CLOUDY    36  32  87 NE21      29.70F
FORT MORGAN    CLOUDY    34  29  83 E21       29.65F WCI  22
$$

COZ086-089-092>099-231100-
...SOUTHEAST COLORADO...

CITY           SKY/WX    TMP DP  RH WIND       PRES   REMARKS
PUEBLO         FAIR      37  17  44 N15       29.57F
LA JUNTA       FAIR      35  18  49 N6        29.56F WCI  30
LAMAR          FAIR      38  24  57 E7        29.53F
SPRINGFIELD      N/A     52  26  36 SW9       29.58F
$$




USA.gov is the U.S. government's official web portal to all federal, state and local government web resources and services.